Wetterdaten: Woche 24.10.16 - 30.10.16 (KW43)
Datum Zeit Temp. I. Temp. A. Feuchte I. Feuchte A. Luftdruck Regen Wind Richtung Sonnenschein UV Solar Taupunkt Windchill Windben
24.10.2016 00:00 23,4 C 5,2 C 45 % 93 % 1014,8 hPa 0,0 l/m 2,8 km/h (1 Bft) O-NO 0,00 h 0,0 UV-I 0 W/m 4,2 C 5,2 C 7,3 km/h (2 Bft)
24.10.2016 01:00 23,4 C 5,4 C 46 % 93 % 1014,9 hPa 0,0 l/m 3,2 km/h (1 Bft) O-NO 0,00 h 0,0 UV-I 0 W/m 4,3 C 5,2 C 7,4 km/h (2 Bft)
24.10.2016 02:00 23,3 C 5,4 C 47 % 93 % 1015,4 hPa 1,0 l/m 1,9 km/h (1 Bft) O-NO 0,00 h 0,0 UV-I 0 W/m 4,4 C 5,4 C 5,0 km/h (1 Bft)
24.10.2016 03:00 23,3 C 5,3 C 47 % 94 % 1015,2 hPa 0,4 l/m 1,7 km/h (1 Bft) O-NO 0,00 h 0,0 UV-I 0 W/m 4,4 C 5,3 C 4,9 km/h (1 Bft)
24.10.2016 04:00 23,3 C 5,5 C 48 % 95 % 1015,1 hPa 0,0 l/m 0,1 km/h (0 Bft) NO 0,00 h 0,0 UV-I 0 W/m 4,7 C 5,5 C 0,5 km/h (0 Bft)
24.10.2016 05:00 23,2 C 5,7 C 48 % 96 % 1015,4 hPa 0,0 l/m 0,0 km/h (0 Bft) O-NO 0,00 h 0,0 UV-I 0 W/m 5,1 C 5,7 C 0,1 km/h (0 Bft)
24.10.2016 06:00 23,3 C 5,7 C 49 % 96 % 1015,6 hPa 0,0 l/m 0,5 km/h (0 Bft) O-NO 0,00 h 0,0 UV-I 0 W/m 5,1 C 5,7 C 1,4 km/h (1 Bft)
24.10.2016 07:00 23,3 C 5,8 C 50 % 96 % 1015,8 hPa 0,2 l/m 0,1 km/h (0 Bft) O-NO 0,00 h 0,0 UV-I 0 W/m 5,2 C 5,8 C 0,4 km/h (0 Bft)
24.10.2016 08:00 23,4 C 6,1 C 50 % 96 % 1016,0 hPa 0,0 l/m 0,0 km/h (0 Bft) N 0,00 h 0,0 UV-I 10 W/m 5,5 C 6,1 C 0,0 km/h (0 Bft)
24.10.2016 09:00 23,4 C 6,6 C 51 % 97 % 1015,8 hPa 0,0 l/m 0,1 km/h (0 Bft) O-NO 0,00 h 0,5 UV-I 56 W/m 6,1 C 6,6 C 0,4 km/h (0 Bft)
24.10.2016 10:00 23,4 C 8,3 C 51 % 95 % 1015,9 hPa 0,0 l/m 0,0 km/h (0 Bft) N 0,13 h 0,6 UV-I 124 W/m 7,6 C 8,3 C 0,0 km/h (0 Bft)
24.10.2016 11:00 23,6 C 9,4 C 52 % 94 % 1016,3 hPa 0,0 l/m 0,0 km/h (0 Bft) N 0,62 h 1,1 UV-I 220 W/m 8,5 C 9,4 C 0,0 km/h (0 Bft)
24.10.2016 12:00 23,7 C 10,6 C 52 % 91 % 1016,3 hPa 0,0 l/m 0,0 km/h (0 Bft) N 0,63 h 1,2 UV-I 170 W/m 9,1 C 10,6 C 0,0 km/h (0 Bft)
24.10.2016 13:00 23,8 C 10,5 C 52 % 93 % 1016,0 hPa 0,6 l/m 0,0 km/h (0 Bft) N 0,00 h 0,6 UV-I 82 W/m 9,4 C 10,5 C 0,0 km/h (0 Bft)
24.10.2016 14:00 23,9 C 11,3 C 52 % 94 % 1015,3 hPa 0,0 l/m 0,0 km/h (0 Bft) N 0,22 h 0,9 UV-I 130 W/m 10,4 C 11,3 C 0,0 km/h (0 Bft)
24.10.2016 15:00 23,9 C 11,3 C 52 % 94 % 1015,5 hPa 0,0 l/m 0,0 km/h (0 Bft) N 0,00 h 0,0 UV-I 37 W/m 10,4 C 11,3 C 0,0 km/h (0 Bft)
24.10.2016 16:00 23,8 C 11,3 C 52 % 95 % 1015,3 hPa 0,0 l/m 0,0 km/h (0 Bft) N 0,00 h 0,0 UV-I 34 W/m 10,5 C 11,3 C 0,0 km/h (0 Bft)
24.10.2016 17:00 23,8 C 10,6 C 52 % 94 % 1015,2 hPa 0,0 l/m 0,1 km/h (0 Bft) O 0,00 h 0,0 UV-I 11 W/m 9,6 C 10,6 C 0,2 km/h (0 Bft)
24.10.2016 18:00 23,9 C 10,2 C 53 % 94 % 1015,0 hPa 0,0 l/m 0,0 km/h (0 Bft) N 0,00 h 0,0 UV-I 0 W/m 9,3 C 10,2 C 0,1 km/h (0 Bft)
24.10.2016 19:00 24,1 C 10,0 C 54 % 94 % 1014,9 hPa 0,0 l/m 0,0 km/h (0 Bft) N 0,00 h 0,0 UV-I 0 W/m 9,0 C 10,0 C 0,0 km/h (0 Bft)
24.10.2016 20:00 24,0 C 9,6 C 53 % 95 % 1015,0 hPa 0,0 l/m 0,0 km/h (0 Bft) N 0,00 h 0,0 UV-I 0 W/m 8,8 C 9,6 C 0,0 km/h (0 Bft)
24.10.2016 21:00 23,9 C 9,4 C 54 % 95 % 1015,2 hPa 0,2 l/m 0,0 km/h (0 Bft) N 0,00 h 0,0 UV-I 0 W/m 8,6 C 9,4 C 0,1 km/h (0 Bft)
24.10.2016 22:00 24,2 C 9,3 C 55 % 96 % 1015,6 hPa 0,2 l/m 0,0 km/h (0 Bft) N 0,00 h 0,0 UV-I 0 W/m 8,7 C 9,3 C 0,0 km/h (0 Bft)
24.10.2016 23:00 24,0 C 9,2 C 54 % 96 % 1015,6 hPa 0,0 l/m 0,0 km/h (0 Bft) N 0,00 h 0,0 UV-I 0 W/m 8,6 C 9,2 C 0,0 km/h (0 Bft)
25.10.2016 00:00 23,8 C 9,0 C 54 % 96 % 1015,9 hPa 0,0 l/m 0,0 km/h (0 Bft) N 0,00 h 0,0 UV-I 0 W/m 8,4 C 9,0 C 0,0 km/h (0 Bft)
25.10.2016 01:00 23,7 C 8,9 C 54 % 96 % 1016,3 hPa 0,2 l/m 0,0 km/h (0 Bft) N 0,00 h 0,0 UV-I 0 W/m 8,3 C 8,9 C 0,0 km/h (0 Bft)
25.10.2016 02:00 24,1 C 9,0 C 55 % 97 % 1016,2 hPa 0,4 l/m 0,0 km/h (0 Bft) O-NO 0,00 h 0,0 UV-I 0 W/m 8,5 C 9,0 C 0,1 km/h (0 Bft)
25.10.2016 03:00 24,2 C 9,2 C 55 % 97 % 1016,1 hPa 0,0 l/m 0,0 km/h (0 Bft) N 0,00 h 0,0 UV-I 0 W/m 8,7 C 9,2 C 0,0 km/h (0 Bft)
25.10.2016 04:00 24,2 C 9,4 C 55 % 97 % 1016,5 hPa 1,4 l/m 0,0 km/h (0 Bft) N 0,00 h 0,0 UV-I 0 W/m 8,9 C 9,4 C 0,0 km/h (0 Bft)
25.10.2016 05:00 24,2 C 10,2 C 55 % 97 % 1017,0 hPa 1,4 l/m 3,2 km/h (1 Bft) S 0,00 h 0,0 UV-I 0 W/m 9,9 C 10,0 C 6,4 km/h (2 Bft)
25.10.2016 06:00 24,2 C 11,4 C 55 % 98 % 1016,9 hPa 0,2 l/m 3,9 km/h (1 Bft) S 0,00 h 0,0 UV-I 0 W/m 11,1 C 11,3 C 8,9 km/h (2 Bft)
25.10.2016 07:00 24,1 C 11,7 C 55 % 98 % 1017,2 hPa 0,0 l/m 2,6 km/h (1 Bft) SW 0,00 h 0,0 UV-I 0 W/m 11,3 C 11,6 C 6,7 km/h (2 Bft)
25.10.2016 08:00 24,0 C 11,5 C 55 % 97 % 1018,2 hPa 0,4 l/m 2,9 km/h (1 Bft) S-SW 0,00 h 0,0 UV-I 8 W/m 11,1 C 11,5 C 6,9 km/h (2 Bft)
25.10.2016 09:00 24,0 C 11,4 C 55 % 97 % 1018,9 hPa 0,2 l/m 1,5 km/h (1 Bft) SW 0,00 h 0,0 UV-I 21 W/m 11,0 C 11,4 C 4,4 km/h (1 Bft)
25.10.2016 10:00 23,7 C 11,8 C 54 % 98 % 1019,8 hPa 0,0 l/m 0,5 km/h (0 Bft) W 0,00 h 0,0 UV-I 39 W/m 11,5 C 11,8 C 1,6 km/h (1 Bft)
25.10.2016 11:00 23,5 C 12,4 C 54 % 98 % 1020,2 hPa 0,0 l/m 0,3 km/h (0 Bft) W-SW 0,00 h 0,8 UV-I 81 W/m 12,1 C 12,4 C 1,0 km/h (0 Bft)
25.10.2016 12:00 23,5 C 13,0 C 54 % 96 % 1020,4 hPa 0,0 l/m 4,1 km/h (1 Bft) W 0,33 h 1,0 UV-I 134 W/m 12,3 C 12,8 C 9,3 km/h (2 Bft)
25.10.2016 13:00 23,5 C 13,1 C 54 % 93 % 1020,6 hPa 0,0 l/m 3,0 km/h (1 Bft) W 0,43 h 1,0 UV-I 135 W/m 11,9 C 13,0 C 7,3 km/h (2 Bft)
25.10.2016 14:00 23,7 C 12,0 C 54 % 93 % 1021,0 hPa 0,0 l/m 1,7 km/h (1 Bft) N-NW 0,00 h 0,5 UV-I 41 W/m 10,9 C 12,0 C 4,7 km/h (1 Bft)
25.10.2016 15:00 24,0 C 12,0 C 53 % 93 % 1021,3 hPa 0,0 l/m 1,1 km/h (0 Bft) N-NW 0,00 h 0,6 UV-I 83 W/m 10,9 C 12,0 C 3,0 km/h (1 Bft)
25.10.2016 16:00 24,0 C 12,1 C 54 % 91 % 1021,6 hPa 0,0 l/m 0,0 km/h (0 Bft) N-NW 0,00 h 0,0 UV-I 49 W/m 10,8 C 12,1 C 0,2 km/h (0 Bft)
25.10.2016 17:00 23,9 C 11,9 C 54 % 92 % 1021,9 hPa 0,0 l/m 0,0 km/h (0 Bft) N 0,00 h 0,0 UV-I 17 W/m 10,6 C 11,9 C 0,0 km/h (0 Bft)
25.10.2016 18:00 24,0 C 11,3 C 54 % 92 % 1022,4 hPa 0,0 l/m 0,0 km/h (0 Bft) N 0,00 h 0,0 UV-I 0 W/m 10,1 C 11,3 C 0,0 km/h (0 Bft)
25.10.2016 19:00 24,1 C 10,7 C 54 % 93 % 1023,1 hPa 0,0 l/m 0,0 km/h (0 Bft) N 0,00 h 0,0 UV-I 0 W/m 9,6 C 10,7 C 0,0 km/h (0 Bft)
25.10.2016 20:00 24,1 C 10,4 C 54 % 94 % 1023,5 hPa 0,0 l/m 0,0 km/h (0 Bft) N 0,00 h 0,0 UV-I 0 W/m 9,5 C 10,4 C 0,0 km/h (0 Bft)
25.10.2016 21:00 24,3 C 10,1 C 54 % 95 % 1023,7 hPa 0,0 l/m 0,0 km/h (0 Bft) N 0,00 h 0,0 UV-I 0 W/m 9,4 C 10,1 C 0,0 km/h (0 Bft)
25.10.2016 22:00 24,3 C 9,9 C 54 % 95 % 1023,9 hPa 0,0 l/m 0,0 km/h (0 Bft) N 0,00 h 0,0 UV-I 0 W/m 9,2 C 9,9 C 0,0 km/h (0 Bft)
25.10.2016 23:00 24,0 C 9,9 C 54 % 96 % 1024,1 hPa 0,0 l/m 0,1 km/h (0 Bft) N-NW 0,00 h 0,0 UV-I 0 W/m 9,3 C 9,9 C 1,0 km/h (0 Bft)
26.10.2016 00:00 23,9 C 9,8 C 54 % 96 % 1024,4 hPa 0,0 l/m 0,1 km/h (0 Bft) N-NW 0,00 h 0,0 UV-I 0 W/m 9,2 C 9,8 C 0,8 km/h (0 Bft)
26.10.2016 01:00 23,8 C 9,5 C 54 % 96 % 1024,6 hPa 0,0 l/m 0,2 km/h (0 Bft) N 0,00 h 0,0 UV-I 0 W/m 8,9 C 9,5 C 0,8 km/h (0 Bft)
26.10.2016 02:00 23,8 C 8,7 C 54 % 95 % 1024,7 hPa 0,0 l/m 0,0 km/h (0 Bft) N 0,00 h 0,0 UV-I 0 W/m 7,9 C 8,7 C 0,0 km/h (0 Bft)
26.10.2016 03:00 23,7 C 7,6 C 55 % 95 % 1024,9 hPa 0,0 l/m 0,0 km/h (0 Bft) N 0,00 h 0,0 UV-I 0 W/m 6,9 C 7,6 C 0,0 km/h (0 Bft)
26.10.2016 04:00 23,7 C 7,7 C 55 % 96 % 1025,3 hPa 0,0 l/m 0,0 km/h (0 Bft) N 0,00 h 0,0 UV-I 0 W/m 7,1 C 7,7 C 0,0 km/h (0 Bft)
26.10.2016 05:00 23,7 C 7,9 C 55 % 96 % 1025,5 hPa 0,0 l/m 0,0 km/h (0 Bft) N 0,00 h 0,0 UV-I 0 W/m 7,3 C 7,9 C 0,0 km/h (0 Bft)
26.10.2016 06:00 23,7 C 8,1 C 55 % 96 % 1025,9 hPa 0,0 l/m 0,2 km/h (0 Bft) N-NW 0,00 h 0,0 UV-I 0 W/m 7,5 C 8,1 C 0,8 km/h (0 Bft)
26.10.2016 07:00 23,7 C 8,0 C 55 % 96 % 1026,4 hPa 0,0 l/m 0,1 km/h (0 Bft) N 0,00 h 0,0 UV-I 0 W/m 7,4 C 8,0 C 1,2 km/h (1 Bft)
26.10.2016 08:00 23,8 C 7,9 C 56 % 96 % 1026,9 hPa 0,0 l/m 0,2 km/h (0 Bft) N 0,00 h 0,0 UV-I 24 W/m 7,3 C 7,9 C 0,8 km/h (0 Bft)
26.10.2016 09:00 23,8 C 8,2 C 55 % 97 % 1027,1 hPa 0,0 l/m 0,2 km/h (0 Bft) N-NO 0,15 h 0,6 UV-I 92 W/m 7,7 C 8,2 C 0,8 km/h (0 Bft)
26.10.2016 10:00 23,7 C 9,2 C 54 % 92 % 1027,2 hPa 0,0 l/m 0,9 km/h (0 Bft) N 0,28 h 0,8 UV-I 151 W/m 7,9 C 9,2 C 2,6 km/h (1 Bft)
26.10.2016 11:00 23,7 C 10,8 C 53 % 86 % 1027,3 hPa 0,0 l/m 2,7 km/h (1 Bft) N 1,00 h 1,4 UV-I 319 W/m 8,5 C 10,7 C 5,5 km/h (1 Bft)
26.10.2016 12:00 23,6 C 11,5 C 50 % 83 % 1027,4 hPa 0,0 l/m 1,8 km/h (1 Bft) N 1,00 h 1,5 UV-I 268 W/m 8,7 C 11,5 C 3,5 km/h (1 Bft)
26.10.2016 13:00 23,2 C 11,9 C 50 % 76 % 1027,4 hPa 0,0 l/m 1,9 km/h (1 Bft) N 1,00 h 1,4 UV-I 219 W/m 7,9 C 11,9 C 4,8 km/h (1 Bft)
26.10.2016 14:00 23,3 C 11,8 C 50 % 77 % 1027,1 hPa 0,2 l/m 1,0 km/h (0 Bft) N-NO 1,00 h 1,3 UV-I 217 W/m 7,9 C 11,8 C 2,5 km/h (1 Bft)
26.10.2016 15:00 23,4 C 12,0 C 50 % 71 % 1027,0 hPa 0,0 l/m 0,7 km/h (0 Bft) W-NW 0,55 h 0,8 UV-I 178 W/m 6,9 C 12,0 C 1,5 km/h (1 Bft)
26.10.2016 16:00 23,3 C 11,5 C 50 % 75 % 1027,2 hPa 0,0 l/m 0,5 km/h (0 Bft) NW 0,00 h 0,5 UV-I 59 W/m 7,2 C 11,5 C 1,3 km/h (1 Bft)
26.10.2016 17:00 23,3 C 10,7 C 50 % 80 % 1027,3 hPa 0,0 l/m 0,2 km/h (0 Bft) N 0,00 h 0,0 UV-I 20 W/m 7,3 C 10,7 C 0,7 km/h (0 Bft)
26.10.2016 18:00 23,2 C 10,1 C 49 % 82 % 1027,6 hPa 0,0 l/m 0,0 km/h (0 Bft) N 0,00 h 0,0 UV-I 0 W/m 7,1 C 10,1 C 0,0 km/h (0 Bft)
26.10.2016 19:00 23,6 C 8,7 C 50 % 85 % 1028,0 hPa 0,0 l/m 0,0 km/h (0 Bft) N 0,00 h 0,0 UV-I 0 W/m 6,3 C 8,7 C 0,0 km/h (0 Bft)
26.10.2016 20:00 23,8 C 7,7 C 50 % 89 % 1028,4 hPa 0,0 l/m 0,0 km/h (0 Bft) N 0,00 h 0,0 UV-I 0 W/m 6,0 C 7,7 C 0,0 km/h (0 Bft)
26.10.2016 21:00 24,0 C 7,0 C 50 % 91 % 1028,8 hPa 0,0 l/m 0,0 km/h (0 Bft) N 0,00 h 0,0 UV-I 0 W/m 5,7 C 7,0 C 0,0 km/h (0 Bft)
26.10.2016 22:00 24,2 C 6,8 C 50 % 93 % 1029,0 hPa 0,0 l/m 0,0 km/h (0 Bft) N 0,00 h 0,0 UV-I 0 W/m 5,7 C 6,8 C 0,0 km/h (0 Bft)
26.10.2016 23:00 23,9 C 6,7 C 50 % 94 % 1029,2 hPa 0,0 l/m 0,0 km/h (0 Bft) N 0,00 h 0,0 UV-I 0 W/m 5,8 C 6,7 C 0,0 km/h (0 Bft)
27.10.2016 00:00 23,7 C 6,6 C 50 % 94 % 1029,6 hPa 0,0 l/m 0,0 km/h (0 Bft) N 0,00 h 0,0 UV-I 0 W/m 5,7 C 6,6 C 0,0 km/h (0 Bft)
27.10.2016 01:00 23,6 C 6,6 C 51 % 95 % 1029,7 hPa 0,0 l/m 0,0 km/h (0 Bft) N 0,00 h 0,0 UV-I 0 W/m 5,9 C 6,6 C 0,0 km/h (0 Bft)
27.10.2016 02:00 23,5 C 6,7 C 51 % 95 % 1029,8 hPa 0,0 l/m 0,0 km/h (0 Bft) N 0,00 h 0,0 UV-I 0 W/m 5,9 C 6,7 C 0,0 km/h (0 Bft)
27.10.2016 03:00 23,4 C 6,6 C 51 % 95 % 1029,4 hPa 0,0 l/m 0,0 km/h (0 Bft) N 0,00 h 0,0 UV-I 0 W/m 5,9 C 6,6 C 0,0 km/h (0 Bft)
27.10.2016 04:00 23,7 C 6,7 C 52 % 96 % 1029,7 hPa 0,0 l/m 0,0 km/h (0 Bft) N 0,00 h 0,0 UV-I 0 W/m 6,0 C 6,7 C 0,0 km/h (0 Bft)
27.10.2016 05:00 23,8 C 6,9 C 52 % 96 % 1030,0 hPa 0,0 l/m 0,0 km/h (0 Bft) N 0,00 h 0,0 UV-I 0 W/m 6,3 C 6,9 C 0,0 km/h (0 Bft)
27.10.2016 06:00 23,8 C 6,9 C 53 % 96 % 1030,4 hPa 0,0 l/m 0,0 km/h (0 Bft) N 0,00 h 0,0 UV-I 0 W/m 6,3 C 6,9 C 0,2 km/h (0 Bft)
27.10.2016 07:00 23,8 C 6,9 C 53 % 96 % 1030,7 hPa 0,0 l/m 0,9 km/h (0 Bft) W-SW 0,00 h 0,0 UV-I 0 W/m 6,3 C 6,9 C 2,7 km/h (1 Bft)
27.10.2016 08:00 23,8 C 6,6 C 53 % 95 % 1031,5 hPa 0,0 l/m 0,3 km/h (0 Bft) W-SW 0,00 h 0,0 UV-I 19 W/m 5,9 C 6,6 C 1,2 km/h (1 Bft)
27.10.2016 09:00 23,7 C 7,0 C 51 % 94 % 1032,4 hPa 0,0 l/m 0,2 km/h (0 Bft) S 0,55 h 0,6 UV-I 134 W/m 6,1 C 7,0 C 0,6 km/h (0 Bft)
27.10.2016 10:00 23,6 C 8,3 C 50 % 88 % 1032,7 hPa 0,0 l/m 1,8 km/h (1 Bft) S 0,80 h 0,9 UV-I 222 W/m 6,4 C 8,3 C 4,0 km/h (1 Bft)
27.10.2016 11:00 23,7 C 8,0 C 49 % 88 % 1033,1 hPa 0,0 l/m 0,5 km/h (0 Bft) S 0,00 h 0,7 UV-I 84 W/m 6,1 C 8,0 C 1,9 km/h (1 Bft)
27.10.2016 12:00 23,7 C 7,7 C 48 % 93 % 1033,3 hPa 0,0 l/m 0,1 km/h (0 Bft) S 0,00 h 0,7 UV-I 61 W/m 6,6 C 7,7 C 0,6 km/h (0 Bft)
27.10.2016 13:00 23,5 C 8,0 C 47 % 93 % 1033,2 hPa 0,0 l/m 0,2 km/h (0 Bft) S-SO 0,00 h 0,6 UV-I 76 W/m 6,9 C 8,0 C 0,9 km/h (0 Bft)
27.10.2016 14:00 23,4 C 8,6 C 47 % 90 % 1033,2 hPa 0,0 l/m 0,1 km/h (0 Bft) S 0,00 h 0,6 UV-I 65 W/m 7,1 C 8,6 C 1,0 km/h (0 Bft)
27.10.2016 15:00 23,5 C 9,0 C 49 % 89 % 1033,2 hPa 0,0 l/m 0,8 km/h (0 Bft) W-SW 0,03 h 0,5 UV-I 87 W/m 7,2 C 9,0 C 3,0 km/h (1 Bft)
27.10.2016 16:00 23,7 C 9,5 C 48 % 88 % 1033,4 hPa 0,0 l/m 1,1 km/h (1 Bft) SW 0,22 h 0,6 UV-I 102 W/m 7,6 C 9,5 C 3,1 km/h (1 Bft)
27.10.2016 17:00 23,8 C 9,3 C 48 % 89 % 1033,6 hPa 0,0 l/m 0,0 km/h (0 Bft) SW 0,00 h 0,0 UV-I 23 W/m 7,6 C 9,3 C 0,4 km/h (0 Bft)
27.10.2016 18:00 24,1 C 8,7 C 49 % 88 % 1033,8 hPa 0,0 l/m 0,0 km/h (0 Bft) W-SW 0,00 h 0,0 UV-I 0 W/m 6,8 C 8,7 C 0,7 km/h (0 Bft)
27.10.2016 19:00 24,5 C 7,7 C 51 % 88 % 1034,4 hPa 0,0 l/m 0,0 km/h (0 Bft) N 0,00 h 0,0 UV-I 0 W/m 5,9 C 7,7 C 0,0 km/h (0 Bft)
27.10.2016 20:00 24,7 C 6,6 C 52 % 91 % 1034,4 hPa 0,0 l/m 0,0 km/h (0 Bft) N 0,00 h 0,0 UV-I 0 W/m 5,2 C 6,6 C 0,0 km/h (0 Bft)
27.10.2016 21:00 24,8 C 6,6 C 52 % 94 % 1034,6 hPa 0,0 l/m 0,0 km/h (0 Bft) N 0,00 h 0,0 UV-I 0 W/m 5,6 C 6,6 C 0,0 km/h (0 Bft)
27.10.2016 22:00 24,5 C 6,5 C 51 % 94 % 1034,9 hPa 0,0 l/m 0,0 km/h (0 Bft) N 0,00 h 0,0 UV-I 0 W/m 5,6 C 6,5 C 0,0 km/h (0 Bft)
27.10.2016 23:00 24,3 C 5,5 C 51 % 93 % 1034,6 hPa 0,0 l/m 0,0 km/h (0 Bft) O-SO 0,00 h 0,0 UV-I 0 W/m 4,5 C 5,5 C 0,2 km/h (0 Bft)
28.10.2016 00:00 24,1 C 5,0 C 52 % 94 % 1034,3 hPa 0,0 l/m 0,0 km/h (0 Bft) N 0,00 h 0,0 UV-I 0 W/m 4,1 C 5,0 C 0,0 km/h (0 Bft)
28.10.2016 01:00 23,9 C 3,7 C 52 % 93 % 1033,9 hPa 0,0 l/m 0,0 km/h (0 Bft) O-SO 0,00 h 0,0 UV-I 0 W/m 2,7 C 3,7 C 0,1 km/h (0 Bft)
28.10.2016 02:00 23,8 C 3,2 C 53 % 94 % 1033,8 hPa 0,0 l/m 0,1 km/h (0 Bft) N-NW 0,00 h 0,0 UV-I 0 W/m 2,4 C 3,2 C 0,2 km/h (0 Bft)
28.10.2016 03:00 23,7 C 2,7 C 53 % 94 % 1033,9 hPa 0,0 l/m 0,0 km/h (0 Bft) N 0,00 h 0,0 UV-I 0 W/m 1,8 C 2,7 C 0,0 km/h (0 Bft)
28.10.2016 04:00 23,6 C 2,0 C 53 % 95 % 1033,8 hPa 0,0 l/m 0,1 km/h (0 Bft) O-SO 0,00 h 0,0 UV-I 0 W/m 1,2 C 2,0 C 0,1 km/h (0 Bft)
28.10.2016 05:00 23,6 C 3,2 C 53 % 96 % 1033,8 hPa 0,0 l/m 0,0 km/h (0 Bft) N 0,00 h 0,0 UV-I 0 W/m 2,6 C 3,2 C 0,0 km/h (0 Bft)
28.10.2016 06:00 23,5 C 4,1 C 53 % 96 % 1033,5 hPa 0,0 l/m 0,0 km/h (0 Bft) N 0,00 h 0,0 UV-I 0 W/m 3,6 C 4,1 C 0,0 km/h (0 Bft)
28.10.2016 07:00 23,4 C 4,9 C 53 % 97 % 1033,2 hPa 0,0 l/m 0,1 km/h (0 Bft) S 0,00 h 0,0 UV-I 0 W/m 4,4 C 4,9 C 0,3 km/h (0 Bft)
28.10.2016 08:00 23,5 C 5,5 C 53 % 97 % 1033,4 hPa 0,0 l/m 0,4 km/h (0 Bft) S 0,00 h 0,0 UV-I 25 W/m 5,1 C 5,5 C 1,4 km/h (1 Bft)
28.10.2016 09:00 23,8 C 6,0 C 53 % 97 % 1033,6 hPa 0,0 l/m 0,4 km/h (0 Bft) S 0,00 h 0,0 UV-I 58 W/m 5,6 C 6,0 C 1,9 km/h (1 Bft)
28.10.2016 10:00 23,8 C 6,5 C 52 % 97 % 1033,5 hPa 0,0 l/m 0,3 km/h (0 Bft) S 0,00 h 0,6 UV-I 54 W/m 6,0 C 6,5 C 1,8 km/h (1 Bft)
28.10.2016 11:00 23,5 C 7,4 C 49 % 94 % 1033,9 hPa 0,0 l/m 1,5 km/h (1 Bft) S 0,40 h 1,1 UV-I 156 W/m 6,5 C 7,4 C 4,0 km/h (1 Bft)
28.10.2016 12:00 23,5 C 10,0 C 49 % 86 % 1033,4 hPa 0,0 l/m 4,6 km/h (1 Bft) SW 1,00 h 1,9 UV-I 404 W/m 7,8 C 9,9 C 7,4 km/h (2 Bft)
28.10.2016 13:00 23,6 C 10,5 C 48 % 83 % 1033,2 hPa 0,0 l/m 4,6 km/h (1 Bft) W-SW 0,32 h 0,9 UV-I 128 W/m 7,7 C 10,2 C 9,4 km/h (2 Bft)
28.10.2016 14:00 23,8 C 10,7 C 47 % 82 % 1032,5 hPa 0,0 l/m 5,9 km/h (2 Bft) W-SW 0,30 h 0,9 UV-I 129 W/m 7,7 C 10,0 C 11,6 km/h (2 Bft)
28.10.2016 15:00 24,0 C 10,8 C 46 % 80 % 1032,5 hPa 0,0 l/m 4,7 km/h (1 Bft) W 0,00 h 0,5 UV-I 58 W/m 7,5 C 10,5 C 10,0 km/h (2 Bft)
28.10.2016 16:00 24,1 C 10,5 C 47 % 83 % 1032,5 hPa 0,0 l/m 4,2 km/h (1 Bft) W-SW 0,00 h 0,0 UV-I 26 W/m 7,7 C 10,3 C 9,5 km/h (2 Bft)
28.10.2016 17:00 24,1 C 10,2 C 47 % 85 % 1032,5 hPa 0,0 l/m 2,3 km/h (1 Bft) W-SW 0,00 h 0,0 UV-I 7 W/m 7,7 C 10,2 C 5,9 km/h (2 Bft)
28.10.2016 18:00 24,1 C 10,0 C 49 % 86 % 1032,9 hPa 0,0 l/m 2,2 km/h (1 Bft) W-SW 0,00 h 0,0 UV-I 0 W/m 7,8 C 10,0 C 6,2 km/h (2 Bft)
28.10.2016 19:00 24,3 C 9,9 C 49 % 88 % 1033,2 hPa 0,0 l/m 1,0 km/h (0 Bft) W-SW 0,00 h 0,0 UV-I 0 W/m 8,0 C 9,9 C 3,4 km/h (1 Bft)
28.10.2016 20:00 24,3 C 9,7 C 50 % 90 % 1033,2 hPa 0,0 l/m 0,5 km/h (0 Bft) W-SW 0,00 h 0,0 UV-I 0 W/m 8,1 C 9,7 C 2,7 km/h (1 Bft)
28.10.2016 21:00 24,5 C 9,5 C 50 % 92 % 1033,2 hPa 0,2 l/m 0,7 km/h (0 Bft) W-SW 0,00 h 0,0 UV-I 0 W/m 8,2 C 9,5 C 2,2 km/h (1 Bft)
28.10.2016 22:00 24,5 C 9,2 C 50 % 94 % 1033,1 hPa 0,0 l/m 0,5 km/h (0 Bft) SW 0,00 h 0,0 UV-I 0 W/m 8,2 C 9,2 C 2,6 km/h (1 Bft)
28.10.2016 23:00 24,3 C 9,2 C 50 % 95 % 1032,8 hPa 0,0 l/m 2,4 km/h (1 Bft) W-SW 0,00 h 0,0 UV-I 0 W/m 8,4 C 9,2 C 6,5 km/h (2 Bft)
29.10.2016 00:00 24,1 C 9,2 C 50 % 95 % 1032,7 hPa 0,2 l/m 1,0 km/h (0 Bft) W-SW 0,00 h 0,0 UV-I 0 W/m 8,4 C 9,2 C 3,5 km/h (1 Bft)
29.10.2016 01:00 23,9 C 9,1 C 50 % 95 % 1032,6 hPa 0,4 l/m 0,0 km/h (0 Bft) N 0,00 h 0,0 UV-I 0 W/m 8,4 C 9,1 C 0,0 km/h (0 Bft)
29.10.2016 02:00 24,3 C 9,1 C 51 % 96 % 1032,3 hPa 0,0 l/m 0,0 km/h (0 Bft) N 0,00 h 0,0 UV-I 0 W/m 8,5 C 9,1 C 0,0 km/h (0 Bft)
29.10.2016 03:00 24,3 C 9,0 C 51 % 96 % 1031,9 hPa 0,0 l/m 0,0 km/h (0 Bft) N 0,00 h 0,0 UV-I 0 W/m 8,4 C 9,0 C 0,1 km/h (0 Bft)
29.10.2016 04:00 24,4 C 9,0 C 52 % 96 % 1031,5 hPa 0,0 l/m 0,0 km/h (0 Bft) N 0,00 h 0,0 UV-I 0 W/m 8,4 C 9,0 C 0,0 km/h (0 Bft)
29.10.2016 05:00 24,3 C 8,9 C 52 % 96 % 1031,5 hPa 0,0 l/m 0,3 km/h (0 Bft) W 0,00 h 0,0 UV-I 0 W/m 8,3 C 8,9 C 0,9 km/h (0 Bft)
29.10.2016 06:00 24,3 C 8,8 C 52 % 96 % 1031,5 hPa 0,0 l/m 0,0 km/h (0 Bft) W 0,00 h 0,0 UV-I 0 W/m 8,2 C 8,8 C 0,3 km/h (0 Bft)
29.10.2016 07:00 23,9 C 8,8 C 53 % 96 % 1031,4 hPa 0,0 l/m 0,1 km/h (0 Bft) W 0,00 h 0,0 UV-I 0 W/m 8,2 C 8,8 C 0,2 km/h (0 Bft)
29.10.2016 08:00 24,0 C 8,9 C 53 % 97 % 1031,7 hPa 0,0 l/m 0,0 km/h (0 Bft) W 0,00 h 0,0 UV-I 16 W/m 8,4 C 8,9 C 0,4 km/h (0 Bft)
29.10.2016 09:00 24,1 C 9,1 C 53 % 97 % 1032,0 hPa 0,2 l/m 0,6 km/h (0 Bft) W-NW 0,00 h 0,5 UV-I 66 W/m 8,7 C 9,1 C 1,2 km/h (1 Bft)
29.10.2016 10:00 24,1 C 9,3 C 53 % 95 % 1032,2 hPa 0,0 l/m 1,8 km/h (1 Bft) NW 0,02 h 0,6 UV-I 60 W/m 8,6 C 9,3 C 4,2 km/h (1 Bft)
29.10.2016 11:00 24,1 C 9,6 C 53 % 89 % 1031,9 hPa 0,0 l/m 4,1 km/h (1 Bft) NW 0,15 h 1,0 UV-I 128 W/m 7,8 C 9,4 C 9,3 km/h (2 Bft)
29.10.2016 12:00 24,0 C 9,8 C 53 % 85 % 1031,8 hPa 0,0 l/m 5,5 km/h (1 Bft) N-NW 0,17 h 1,3 UV-I 129 W/m 7,3 C 8,9 C 11,1 km/h (2 Bft)
29.10.2016 13:00 24,1 C 10,3 C 52 % 76 % 1031,6 hPa 0,0 l/m 5,9 km/h (2 Bft) N 0,98 h 1,5 UV-I 280 W/m 6,3 C 9,4 C 11,6 km/h (2 Bft)
29.10.2016 14:00 24,1 C 10,9 C 51 % 67 % 1030,9 hPa 0,0 l/m 9,4 km/h (2 Bft) NW 0,92 h 1,5 UV-I 315 W/m 5,0 C 8,7 C 15,5 km/h (3 Bft)
29.10.2016 15:00 24,1 C 8,9 C 50 % 81 % 1030,4 hPa 0,0 l/m 8,9 km/h (2 Bft) N-NW 0,52 h 0,9 UV-I 165 W/m 5,7 C 6,9 C 15,0 km/h (3 Bft)
29.10.2016 16:00 24,2 C 9,5 C 49 % 73 % 1030,3 hPa 0,0 l/m 6,6 km/h (2 Bft) W-NW 0,28 h 0,6 UV-I 106 W/m 4,9 C 8,2 C 11,4 km/h (2 Bft)
29.10.2016 17:00 24,3 C 8,7 C 51 % 77 % 1030,4 hPa 0,0 l/m 4,5 km/h (1 Bft) N-NW 0,00 h 0,0 UV-I 18 W/m 4,8 C 8,3 C 8,3 km/h (2 Bft)
29.10.2016 18:00 24,4 C 7,7 C 50 % 80 % 1030,8 hPa 0,0 l/m 1,7 km/h (1 Bft) NW 0,00 h 0,0 UV-I 0 W/m 4,4 C 7,6 C 4,4 km/h (1 Bft)
29.10.2016 19:00 24,2 C 7,1 C 51 % 81 % 1031,0 hPa 0,0 l/m 1,7 km/h (1 Bft) W-NW 0,00 h 0,0 UV-I 0 W/m 4,0 C 7,1 C 4,6 km/h (1 Bft)
29.10.2016 20:00 24,4 C 6,6 C 52 % 83 % 1031,1 hPa 0,0 l/m 0,6 km/h (0 Bft) NW 0,00 h 0,0 UV-I 0 W/m 4,0 C 6,6 C 2,0 km/h (1 Bft)
29.10.2016 21:00 24,6 C 6,1 C 52 % 84 % 1031,1 hPa 0,0 l/m 0,3 km/h (0 Bft) W-NW 0,00 h 0,0 UV-I 0 W/m 3,6 C 6,1 C 0,9 km/h (0 Bft)
29.10.2016 22:00 24,6 C 5,2 C 52 % 87 % 1031,3 hPa 0,0 l/m 0,0 km/h (0 Bft) N 0,00 h 0,0 UV-I 0 W/m 3,2 C 5,2 C 0,0 km/h (0 Bft)
29.10.2016 23:00 24,3 C 4,7 C 51 % 89 % 1031,3 hPa 0,0 l/m 0,0 km/h (0 Bft) N 0,00 h 0,0 UV-I 0 W/m 3,1 C 4,7 C 0,0 km/h (0 Bft)
30.10.2016 00:00 24,1 C 4,2 C 51 % 90 % 1031,2 hPa 0,0 l/m 0,0 km/h (0 Bft) N 0,00 h 0,0 UV-I 0 W/m 2,8 C 4,2 C 0,0 km/h (0 Bft)
30.10.2016 01:00 23,9 C 3,9 C 51 % 92 % 1031,2 hPa 0,0 l/m 0,0 km/h (0 Bft) N 0,00 h 0,0 UV-I 0 W/m 2,6 C 3,9 C 0,0 km/h (0 Bft)
30.10.2016 02:00 24,0 C 3,4 C 51 % 92 % 1030,8 hPa 0,0 l/m 0,0 km/h (0 Bft) N 0,00 h 0,0 UV-I 0 W/m 2,2 C 3,4 C 0,0 km/h (0 Bft)
30.10.2016 03:00 23,9 C 2,5 C 51 % 92 % 1030,4 hPa 0,0 l/m 0,0 km/h (0 Bft) N 0,00 h 0,0 UV-I 0 W/m 1,4 C 2,5 C 0,0 km/h (0 Bft)
30.10.2016 04:00 24,1 C 2,3 C 50 % 93 % 1030,1 hPa 0,0 l/m 0,0 km/h (0 Bft) N 0,00 h 0,0 UV-I 0 W/m 1,3 C 2,3 C 0,0 km/h (0 Bft)
30.10.2016 05:00 24,3 C 3,4 C 51 % 95 % 1030,0 hPa 0,0 l/m 0,0 km/h (0 Bft) N 0,00 h 0,0 UV-I 0 W/m 2,7 C 3,4 C 0,0 km/h (0 Bft)
30.10.2016 06:00 24,3 C 3,7 C 52 % 95 % 1030,0 hPa 0,0 l/m 0,0 km/h (0 Bft) N 0,00 h 0,0 UV-I 0 W/m 3,0 C 3,7 C 0,0 km/h (0 Bft)
30.10.2016 07:00 24,3 C 3,6 C 52 % 95 % 1030,1 hPa 0,0 l/m 0,0 km/h (0 Bft) N 0,00 h 0,0 UV-I 12 W/m 3,0 C 3,6 C 0,0 km/h (0 Bft)
30.10.2016 08:00 24,2 C 4,7 C 51 % 96 % 1030,3 hPa 0,0 l/m 0,0 km/h (0 Bft) N 0,00 h 0,0 UV-I 42 W/m 4,1 C 4,7 C 0,1 km/h (0 Bft)
30.10.2016 09:00 24,2 C 6,1 C 51 % 95 % 1030,4 hPa 0,0 l/m 0,0 km/h (0 Bft) N 0,00 h 0,7 UV-I 78 W/m 5,3 C 6,1 C 0,0 km/h (0 Bft)
30.10.2016 10:00 24,0 C 7,9 C 50 % 89 % 1030,3 hPa 0,0 l/m 0,6 km/h (0 Bft) NW 0,07 h 0,8 UV-I 118 W/m 6,1 C 7,9 C 2,0 km/h (1 Bft)
30.10.2016 11:00 23,9 C 9,1 C 50 % 84 % 1030,1 hPa 0,0 l/m 2,6 km/h (1 Bft) NW 0,45 h 1,0 UV-I 154 W/m 6,5 C 9,1 C 6,6 km/h (2 Bft)
30.10.2016 12:00 23,8 C 9,1 C 50 % 82 % 1029,8 hPa 0,0 l/m 2,9 km/h (1 Bft) NW 0,05 h 0,8 UV-I 112 W/m 6,2 C 9,1 C 7,1 km/h (2 Bft)
30.10.2016 13:00 23,7 C 9,3 C 50 % 79 % 1029,6 hPa 0,0 l/m 1,8 km/h (1 Bft) NW 0,02 h 0,6 UV-I 79 W/m 5,9 C 9,3 C 4,9 km/h (1 Bft)
30.10.2016 14:00 23,7 C 9,3 C 50 % 80 % 1029,3 hPa 0,0 l/m 2,2 km/h (1 Bft) N-NW 0,00 h 0,5 UV-I 57 W/m 6,1 C 9,3 C 5,6 km/h (1 Bft)
30.10.2016 15:00 23,6 C 9,2 C 50 % 82 % 1029,6 hPa 0,0 l/m 0,9 km/h (0 Bft) NW 0,00 h 0,0 UV-I 26 W/m 6,3 C 9,2 C 2,9 km/h (1 Bft)
30.10.2016 16:00 23,8 C 8,8 C 50 % 85 % 1029,8 hPa 0,0 l/m 0,8 km/h (0 Bft) W-NW 0,00 h 0,0 UV-I 9 W/m 6,4 C 8,8 C 2,5 km/h (1 Bft)
30.10.2016 17:00 24,1 C 8,0 C 51 % 87 % 1029,9 hPa 0,0 l/m 0,1 km/h (0 Bft) NW 0,00 h 0,0 UV-I 0 W/m 5,9 C 8,0 C 0,6 km/h (0 Bft)
30.10.2016 18:00 24,1 C 6,7 C 51 % 88 % 1030,0 hPa 0,0 l/m 0,0 km/h (0 Bft) N 0,00 h 0,0 UV-I 0 W/m 4,9 C 6,7 C 0,0 km/h (0 Bft)
30.10.2016 19:00 24,2 C 5,3 C 51 % 90 % 1030,4 hPa 0,0 l/m 0,0 km/h (0 Bft) N 0,00 h 0,0 UV-I 0 W/m 3,8 C 5,3 C 0,0 km/h (0 Bft)
30.10.2016 20:00 24,3 C 4,4 C 51 % 92 % 1030,7 hPa 0,0 l/m 0,0 km/h (0 Bft) N 0,00 h 0,0 UV-I 0 W/m 3,2 C 4,4 C 0,0 km/h (0 Bft)
30.10.2016 21:00 24,1 C 3,6 C 50 % 92 % 1031,0 hPa 0,0 l/m 0,0 km/h (0 Bft) N 0,00 h 0,0 UV-I 0 W/m 2,5 C 3,6 C 0,0 km/h (0 Bft)
30.10.2016 22:00 23,9 C 3,1 C 50 % 93 % 1031,0 hPa 0,0 l/m 0,0 km/h (0 Bft) N 0,00 h 0,0 UV-I 0 W/m 2,1 C 3,1 C 0,0 km/h (0 Bft)
30.10.2016 23:00 23,8 C 2,3 C 50 % 93 % 1031,0 hPa 0,0 l/m 0,0 km/h (0 Bft) O 0,00 h 0,0 UV-I 0 W/m 1,3 C 2,3 C 0,1 km/h (0 Bft)
Min-Datum _ 26.10.16 28.10.16 28.10.16 29.10.16 24.10.16 - 24.10.16 - - - - 30.10.16 28.10.16 24.10.16
_ Min-Zeit 13:05 04:20 11:25 14:35 00:51 - 00:01 - - - - 04:03 04:20 00:01
Minimum _ 23,1 C 1,8 C 44 % 62 % 1014,4 hPa - 0,0 km/h (0 Bft) - - - - 0,9 C 1,8 C 0,0 km/h (0 Bft)
Max-Datum _ 27.10.16 25.10.16 24.10.16 25.10.16 27.10.16 25.10.16 29.10.16 - 26.10.16 28.10.16 26.10.16 25.10.16 25.10.16 29.10.16
_ Max-Zeit 20:37 12:20 22:11 05:29 22:09 04:04 14:48 - 12:05 12:39 11:16 12:20 12:20 13:45
Maximum _ 24,9 C 13,3 C 56 % 98 % 1034,9 hPa 1,4 l/m 19,3 km/h
NW (3 Bft)
- 0,03 h 2,2 UV-I 559 W/m 12,8 C 13,3 C 25,7 km/h
N-NW (4 Bft)
Durchschnitt _ 23,9 C 8,2 C 51 % 91 % 1027,1 hPa #8,0 l/m 0,9 km/h (0 Bft) W-SW #14:35 h 0,9 UV-I 99 W/m 6,8 C 8,1 C 2,2 km/h (1 Bft)